When you browse on this site, cookies collect data to enhance your experience and personalize the content and advertising you see.
Visit our Privacy Policy to learn more. By continuing to use the site, you agree to this use of cookies and data.
  • în România
  • Lista ţărilor
  • Pe 7 zile
  • Temperatura apei
  • Hartă satelitară
  • Meteo pe hartă
  • Widget-uri
  • user-avatar
    Intrare

    Meteo pe oră la Garrisberg

    Astăzi, 23 Februarie, Sâmbătă

    Timp Temperatura Precipitaţii Vânt Presiune Umiditate
    00:00 +1°C° 0 mm 1 m/s 764 mmHg 83%
    01:00 +1°C° 0 mm 1 m/s 764 mmHg 85%
    02:00 +1°C° 0 mm 1 m/s 763 mmHg 85%
    03:00 +1°C° 0 mm 1 m/s 763 mmHg 85%
    04:00 +1°C° 0 mm 1 m/s 763 mmHg 85%
    05:00 0°C° 0 mm 1 m/s 763 mmHg 85%
    06:00 0°C° 0 mm 1 m/s 763 mmHg 85%
    07:00 0°C° 0 mm 1 m/s 763 mmHg 85%
    08:00 +1°C° 0 mm 1 m/s 763 mmHg 80%
    09:00 +1°C° 0 mm 2 m/s 763 mmHg 76%
    10:00 +2°C° 0 mm 2 m/s 763 mmHg 71%
    11:00 +2°C° 0 mm 2 m/s 762 mmHg 71%
    12:00 +3°C° 0 mm 2 m/s 762 mmHg 70%
    13:00 +4°C° 0 mm 2 m/s 761 mmHg 70%
    14:00 +3°C° 0.1 mm 2 m/s 761 mmHg 75%
    15:00 +3°C° 0.1 mm 2 m/s 760 mmHg 79%
    16:00 +3°C° 0.1 mm 2 m/s 760 mmHg 84%
    17:00 +3°C° 0.1 mm 2 m/s 759 mmHg 86%
    18:00 +2°C° 0.1 mm 3 m/s 759 mmHg 89%
    19:00 +2°C° 0.1 mm 3 m/s 758 mmHg 91%
    20:00 +2°C° 0 mm 3 m/s 757 mmHg 92%
    21:00 +2°C° 0 mm 3 m/s 757 mmHg 92%
    22:00 +2°C° 0 mm 3 m/s 756 mmHg 93%
    23:00 +2°C° 0.1 mm 3 m/s 755 mmHg 94%

    Mâine, 24 Februarie, Duminică

    Timp Temperatura Precipitaţii Vânt Presiune Umiditate
    00:00 +2°C° 0.1 mm 3 m/s 754 mmHg 96%
    01:00 +2°C° 0.1 mm 3 m/s 753 mmHg 97%
    02:00 +2°C° 0.9 mm 3 m/s 752 mmHg 97%
    03:00 +2°C° 0.9 mm 3 m/s 751 mmHg 97%
    04:00 +3°C° 0.9 mm 3 m/s 749 mmHg 98%
    05:00 +3°C° 2.5 mm 3 m/s 748 mmHg 97%
    06:00 +3°C° 2.5 mm 3 m/s 747 mmHg 97%
    07:00 +4°C° 2.5 mm 3 m/s 745 mmHg 97%
    08:00 +5°C° 1.1 mm 4 m/s 744 mmHg 96%
    09:00 +6°C° 1.1 mm 4 m/s 742 mmHg 95%
    10:00 +8°C° 1.1 mm 5 m/s 741 mmHg 94%
    11:00 +9°C° 0 mm 5 m/s 740 mmHg 91%
    12:00 +10°C° 0 mm 5 m/s 739 mmHg 88%
    13:00 +11°C° 0 mm 6 m/s 738 mmHg 85%
    14:00 +10°C° 0 mm 7 m/s 738 mmHg 78%
    15:00 +9°C° 0 mm 8 m/s 738 mmHg 71%
    16:00 +7°C° 0 mm 9 m/s 738 mmHg 64%
    17:00 +6°C° 0 mm 8 m/s 739 mmHg 66%
    18:00 +4°C° 0 mm 7 m/s 740 mmHg 68%
    19:00 +3°C° 0 mm 6 m/s 740 mmHg 70%
    20:00 +2°C° 0 mm 6 m/s 741 mmHg 68%
    21:00 0°C° 0 mm 7 m/s 741 mmHg 66%
    22:00 0°C° 0 mm 7 m/s 742 mmHg 64%
    23:00 -1°C° 0 mm 8 m/s 742 mmHg 63%

    Poimâine, 25 Februarie, Luni

    Timp Temperatura Precipitaţii Vânt Presiune Umiditate
    00:00 -2°C° 0 mm 8 m/s 743 mmHg 62%
    01:00 -4°C° 0 mm 8 m/s 743 mmHg 60%
    02:00 -5°C° 0 mm 9 m/s 744 mmHg 59%
    03:00 -5°C° 0 mm 9 m/s 745 mmHg 58%
    04:00 -6°C° 0 mm 9 m/s 745 mmHg 57%
    05:00 -6°C° 0 mm 9 m/s 746 mmHg 55%
    06:00 -6°C° 0 mm 9 m/s 747 mmHg 54%
    07:00 -8°C° 0 mm 10 m/s 748 mmHg 52%
    08:00 -7°C° 0 mm 10 m/s 749 mmHg 49%
    09:00 -7°C° 0 mm 10 m/s 751 mmHg 46%
    10:00 -6°C° 0 mm 11 m/s 752 mmHg 44%
    11:00 -4°C° 0 mm 11 m/s 752 mmHg 41%
    12:00 -4°C° 0 mm 10 m/s 753 mmHg 38%
    13:00 -3°C° 0 mm 10 m/s 753 mmHg 35%
    14:00 -3°C° 0 mm 10 m/s 754 mmHg 34%
    15:00 -3°C° 0 mm 10 m/s 754 mmHg 33%
    16:00 -3°C° 0 mm 10 m/s 755 mmHg 32%
    17:00 -4°C° 0 mm 8 m/s 755 mmHg 35%
    18:00 -4°C° 0 mm 7 m/s 756 mmHg 38%
    19:00 -5°C° 0 mm 6 m/s 757 mmHg 41%
    20:00 -5°C° 0 mm 6 m/s 758 mmHg 42%
    21:00 -6°C° 0 mm 6 m/s 758 mmHg 42%
    22:00 -6°C° 0 mm 5 m/s 759 mmHg 42%
    23:00 -6°C° 0 mm 5 m/s 759 mmHg 43%

    26 Februarie, Marţi

    Timp Temperatura Precipitaţii Vânt Presiune Umiditate
    00:00 -7°C° 0 mm 5 m/s 760 mmHg 44%
    01:00 -7°C° 0 mm 5 m/s 760 mmHg 44%
    02:00 -7°C° 0 mm 4 m/s 761 mmHg 44%
    03:00 -7°C° 0 mm 4 m/s 761 mmHg 45%
    04:00 -8°C° 0 mm 4 m/s 761 mmHg 45%
    05:00 -8°C° 0 mm 4 m/s 762 mmHg 45%
    06:00 -8°C° 0 mm 4 m/s 762 mmHg 46%
    07:00 -9°C° 0 mm 4 m/s 763 mmHg 46%
    08:00 -8°C° 0 mm 4 m/s 763 mmHg 43%
    09:00 -7°C° 0 mm 4 m/s 764 mmHg 40%
    10:00 -5°C° 0 mm 4 m/s 764 mmHg 36%
    11:00 -4°C° 0 mm 4 m/s 764 mmHg 34%
    12:00 -3°C° 0 mm 4 m/s 763 mmHg 32%
    13:00 -2°C° 0 mm 5 m/s 763 mmHg 29%
    14:00 -1°C° 0 mm 4 m/s 763 mmHg 30%
    15:00 -1°C° 0 mm 4 m/s 763 mmHg 30%
    16:00 -1°C° 0 mm 4 m/s 762 mmHg 31%
    17:00 -1°C° 0 mm 3 m/s 763 mmHg 35%
    18:00 -2°C° 0 mm 3 m/s 763 mmHg 40%
    19:00 -3°C° 0 mm 2 m/s 764 mmHg 44%
    20:00 -3°C° 0 mm 2 m/s 764 mmHg 43%
    21:00 -3°C° 0 mm 2 m/s 764 mmHg 43%
    22:00 -3°C° 0 mm 2 m/s 765 mmHg 42%
    23:00 -4°C° 0 mm 2 m/s 765 mmHg 42%

    27 Februarie, Miercuri

    Timp Temperatura Precipitaţii Vânt Presiune Umiditate
    00:00 -4°C° 0 mm 2 m/s 764 mmHg 42%
    01:00 -4°C° 0 mm 2 m/s 764 mmHg 43%
    02:00 -2°C° 0 mm 1 m/s 764 mmHg 43%
    03:00 -3°C° 0 mm 1 m/s 764 mmHg 44%
    04:00 -3°C° 0 mm 1 m/s 763 mmHg 44%
    05:00 -3°C° 0 mm 1 m/s 763 mmHg 45%
    06:00 -3°C° 0 mm 1 m/s 763 mmHg 45%
    07:00 -3°C° 0 mm 1 m/s 763 mmHg 46%
    08:00 -4°C° 0 mm 2 m/s 763 mmHg 41%
    09:00 -4°C° 0 mm 3 m/s 762 mmHg 37%
    10:00 -1°C° 0 mm 3 m/s 762 mmHg 33%
    11:00 -1°C° 0 mm 4 m/s 760 mmHg 35%
    12:00 +1°C° 0 mm 4 m/s 759 mmHg 37%
    13:00 +3°C° 0 mm 5 m/s 757 mmHg 38%
    14:00 +3°C° 0 mm 5 m/s 756 mmHg 44%
    15:00 +5°C° 0 mm 5 m/s 754 mmHg 49%
    16:00 +5°C° 0 mm 5 m/s 753 mmHg 54%
    17:00 +5°C° 0 mm 5 m/s 752 mmHg 62%
    18:00 +4°C° 0 mm 4 m/s 752 mmHg 71%
    19:00 +3°C° 0 mm 3 m/s 751 mmHg 79%
    20:00 +3°C° 0 mm 3 m/s 751 mmHg 83%
    21:00 +4°C° 0 mm 3 m/s 750 mmHg 88%
    22:00 +5°C° 0 mm 2 m/s 749 mmHg 92%
    23:00 +4°C° 0.1 mm 3 m/s 749 mmHg 92%

    28 Februarie, Joi

    Timp Temperatura Precipitaţii Vânt Presiune Umiditate
    00:00 +4°C° 0.1 mm 3 m/s 749 mmHg 92%
    01:00 +5°C° 0.1 mm 3 m/s 749 mmHg 92%
    02:00 +3°C° 0 mm 3 m/s 749 mmHg 90%
    03:00 +1°C° 0 mm 4 m/s 749 mmHg 87%
    04:00 0°C° 0 mm 4 m/s 749 mmHg 85%
    05:00 0°C° 0 mm 3 m/s 750 mmHg 82%
    06:00 -1°C° 0 mm 3 m/s 751 mmHg 80%
    07:00 -2°C° 0 mm 3 m/s 752 mmHg 78%
    08:00 -1°C° 0 mm 3 m/s 752 mmHg 70%
    09:00 -1°C° 0 mm 4 m/s 753 mmHg 62%
    10:00 0°C° 0 mm 4 m/s 754 mmHg 54%
    11:00 +1°C° 0 mm 4 m/s 754 mmHg 49%
    12:00 +1°C° 0 mm 4 m/s 754 mmHg 45%
    13:00 +3°C° 0 mm 4 m/s 754 mmHg 41%
    14:00 +3°C° 0 mm 4 m/s 754 mmHg 41%
    15:00 +3°C° 0 mm 3 m/s 754 mmHg 41%
    16:00 +3°C° 0 mm 3 m/s 754 mmHg 42%
    17:00 +2°C° 0 mm 3 m/s 754 mmHg 46%
    18:00 +2°C° 0 mm 2 m/s 755 mmHg 50%
    19:00 +1°C° 0 mm 2 m/s 755 mmHg 54%
    20:00 +2°C° 0 mm 1 m/s 756 mmHg 56%
    21:00 +1°C° 0 mm 1 m/s 756 mmHg 58%
    22:00 0°C° 0 mm 1 m/s 756 mmHg 60%
    23:00 +1°C° 0 mm 1 m/s 756 mmHg 59%
    Arată mai mult